Powrót do katalogu

ONEWEB-0176

AktywnyŁącznośćPO
NORAD 48210·PAYLOAD·🇬🇧 United Kingdom

Wystrzelony Apr 25, 2021 z Vostochny Cosmodrome

Loading…

Następne Przeloty (najbliższe 24 godziny)

TLE

ŚwieżeSource: CelesTrak SupGP

Epoka: Sep 14, 2026, 13:28 UTC

1 48210C 21031A   26257.56130046 -.00000878  00000+0 -23715-2 0  2570
2 48210  87.8896 271.8753 0001913  88.6587  11.5535 13.14505116    10

Śledź ONEWEB-0176 w czasie rzeczywistym z AllMySat

Download on the App Store